Regional Weather Roundup
Issued by NWS

Home | Current Version | Previous Version | Graphics & Text | Print | Product List | Glossary On
Versions: 1 2 3 4 5 6 7 8 9 10 11 12 13 14 15 16 17 18 19 20 21 22 23 24 25 26 27 28
000
ASUS45 KTFX 212310
RWRMT
MONTANA REGIONAL WEATHER ROUNDUP
NATIONAL WEATHER SERVICE GREAT FALLS MT
500 PM MDT SAT APR 21 2018

NOTE: "FAIR" INDICATES FEW OR NO CLOUDS BELOW 12000 FEET WITH NO
SIGNIFICANT WEATHER AND/OR OBSTRUCTIONS TO VISIBILITY.

MTZ001>007-043-220000-
WEST OF THE DIVIDE

CITY           SKY/WX    TMP DP  RH WIND       PRES   REMARKS
KALISPELL      CLOUDY    54  19  25 SW17G30   30.08R
MISSOULA       FAIR      60  25  26 W20G30    30.13F
BUTTE          FAIR      63  23  21 NW20G28   30.05S
MULLAN PASS    PTSUNNY   37  21  52 W9G21     30.16R WCI  30
ANACONDA         N/A     61  25  25 MISG      30.04S
DEER LODGE       N/A     61  25  25 MISG      30.07S
HAMILTON         N/A     57  27  30 W9G17     30.12F
RONAN            N/A     57  23  26 W20G30    30.12S
$$

MTZ008-052>055-220000-
SOUTHWEST MONTANA

CITY           SKY/WX    TMP DP  RH WIND       PRES   REMARKS
BOZEMAN        FAIR      71  26  18 W7        29.97F
DILLON         FAIR      66  24  20 SW16      30.02F
ENNIS          SUNNY     66  21  18 SW15G21   30.06F
W YELLOWSTONE  FAIR      54  25  32 SW13G20   30.12F
THREE FORKS      N/A     71  26  18 W14       29.96F
$$

MTZ009-010-012-014-046-048-049-054-220000-
EAST SLOPES AND CENTRAL MONTANA

CITY           SKY/WX    TMP DP  RH WIND       PRES   REMARKS
CUT BANK       FAIR      54  15  21 W38G47    29.95R
GREAT FALLS    FAIR      61  24  24 W28G47    29.97R
HELENA         FAIR      64  30  27 NW21G31   30.01R
AUGUSTA        FAIR      55  18  23 W26       29.97R
BOWMANS CRNR   FAIR      56  22  26 W25G35    29.97S
CHOTEAU          N/A     57  19  23 W26G36    29.97S
CONRAD           N/A     57  25  29 SW26      30.00
FAIRFIELD      FAIR      59  19  21 W28       29.96S
POWER          FAIR      59  21  22 SW32G39   29.96R
RAYNESFORD     FAIR      63  27  26 W24G37    29.95R
ULM            FAIR      62  26  25 W26G38    29.98R
WHITE SULPHUR    N/A     64  30  27 NW15G22   29.97R
$$

MTZ011-013-016-021-045-047-050-051-220000-
NORTH CENTRAL MONTANA

CITY           SKY/WX    TMP DP  RH WIND       PRES   REMARKS
HAVRE          CLOUDY    61  30  31 W33G45    29.90R
LEWISTOWN      FAIR      70  27  20 SW13G24   29.93S
N BAR RANCH    FAIR      70  27  19 W14G20    29.96S
CHINOOK          N/A     63  36  36 MISG      29.89R
GEYSER         FAIR      65  29  26 NW32G38   29.93R
GRASS RANGE    FAIR      69  29  22 NW14G20   29.88F
STANFORD       FAIR      68  26  20 W23       29.94R
$$

MTZ017>020-022>027-061-062-220000-
NORTHEAST MONTANA

CITY           SKY/WX    TMP DP  RH WIND       PRES   REMARKS
GLASGOW        FAIR      76  32  20 SW20G25   29.83F
GLENDIVE       FAIR      69  39  33 S21G26    29.95F
JORDAN           N/A     73  34  23 S13G22    29.87F
MALTA          SUNNY     70  37  30 W17G25    29.82R
SIDNEY         FAIR      70  39  32 S20       29.94F
WOLF POINT     FAIR      76  33  21 SW14      29.87F
PLENTYWOOD       N/A     70  37  30 MISG      29.90F
POPLAR           N/A     73  36  25 MISG      29.88S
$$

MTZ028>42-056>058-220000-
SOUTHCENTRAL AND SOUTHEAST MONTANA

CITY           SKY/WX    TMP DP  RH WIND       PRES   REMARKS
BAKER          FAIR      64  38  38 S23G29    30.02F
BILLINGS       PTSUNNY   71  31  22 SW10      29.93F
MILES CITY     FAIR      71  41  33 S15       29.92F
BIG TIMBER     SUNNY     72  25  17 MISG      29.95F
FORSYTH          N/A     72  37  28 SE9       29.91F
HARLOWTON      FAIR      70  27  20 W25       29.95F
LAUREL           N/A     72  30  21 S14       29.94F
$$

REGIONAL REPORTS...DAKOTAS

CITY           SKY/WX    TMP DP  RH WIND       PRES   REMARKS
WILLISTON      FAIR      68  37  32 S18G25    29.96F
MINOT          FAIR      64  37  36 S23G33    30.06F
DICKINSON      FAIR      60  37  42 S29G37    30.05F
BEACH          FAIR      64  36  34 S23G31    30.03F
CROSBY         FAIR      64  41  42 S24       29.95F
TIOGA          FAIR      63  41  45 S24G32    30.00S
WATFORD CITY   FAIR      66  39  37 S22G30    29.98F
BISMARCK       FAIR      62  35  36 S17G29    30.15F
GRAND FORKS    FAIR      58  46  64 SW10      30.25F
FARGO          FAIR      60  37  42 S12       30.26F
BUFFALO SD       N/A     60  35  39 SE25G31   30.00F
RAPID CITY     FAIR      50  37  61 S21G29    30.14S
$$

REGIONAL REPORTS...WYOMING/IDAHO/WASHINGTON

CITY           SKY/WX    TMP DP  RH WIND       PRES   REMARKS
GILLETTE       FAIR      58  38  47 S13       30.05F
SHERIDAN       FAIR      69  34  27 MISG      29.98F
BUFFALO WY     FAIR      64  33  31 E5        30.04F
CODY           FAIR      70  25  18 W9        30.01S
YELLOWSTONE LA   N/A     52  21  29 SW8       30.20S
IDAHO FALLS    FAIR      67  32  27 SW10      30.09F
SALMON         FAIR      70  29  21 SW17      30.00F
BOISE          FAIR      69  34  27 N13G20    30.12F
SPOKANE        FAIR      57  16  20 W23G35    30.19F
$$

REGIONAL REPORTS...ALBERTA

CITY           SKY/WX    TMP DP  RH WIND       PRES   REMARKS
CALGARY        MOSUNNY   50  30  46 NW9G18    29.81R
EDMONTON       CLOUDY    41  32  70 NW14G20   29.74
FORT MCMURRAY  CLOUDY    55  30  38 E7        29.73F
HIGH LEVEL     LGT RAIN  45  37  76 CALM      29.79S
LETHBRIDGE     MOSUNNY   52  19  28 SW46G61   29.88F
LLOYDMINSTER   LGT RAIN  45  41  87 NE5       29.61F
MEDICINE HAT   MOSUNNY   61  23  23 SW45G60   29.81R
PEACE RIVER    CLOUDY    45  32  61 W9        29.76R
PINCHER CREEK  SUNNY     46  23  39 W41G49    29.95R
WATERTON GATE    N/A     46  21  36 W26G39      N/A
$$

REGIONAL REPORTS...SASKATCHEWAN

CITY           SKY/WX    TMP DP  RH WIND       PRES   REMARKS
ESTEVAN        PTSUNNY   64  39  39 S23G32    29.95F
MOOSE JAW        N/A     68  32  26 S20G26      N/A
PRINCE ALBERT  CLOUDY    43  36  75 E9        29.76F
REGINA         PTSUNNY   66  41  39 S20G28    29.83F
ROCKGLEN         N/A     64  36  34 S22G28      N/A
SASKATOON      CLOUDY    61  37  41 W14       29.71F
SWIFT CURRENT  PTSUNNY   63  36  36 SW31G38   29.78F
VAL MARIE        N/A     68  32  26 W22G29      N/A
$$




USA.gov is the U.S. government's official web portal to all federal, state and local government web resources and services.